Alma, GA

4:39 AM EST on November 20, 2017 (GMT -0500)
Bacon County

Weather History for KAMG - May, 2013

Change the Weather History Date:

Saturday, May 4, 2013

  Actual Average Record
Temperature  
Mean Temperature 65 °F 71 °F  
Max Temperature 70 °F 83 °F 95 °F (2002)
Min Temperature 60 °F 58 °F 40 °F (1971)
Degree Days  
Heating Degree Days 0 0  
Month to date heating degree days 0 3  
Since 1 July heating degree days 1590 1656  
Cooling Degree Days 0 6  
Month to date cooling degree days 5 23  
Year to date cooling degree days 122 177  
Growing Degree Days 15 (Base 50)    
Moisture  
Dew Point 59 °F    
Average Humidity 82    
Maximum Humidity 97    
Minimum Humidity 66    
Precipitation  
Precipitation 0.08 in 0.07 in 2.01 in (1978)
Month to date precipitation 0.95 0.27  
Year to date precipitation 16.59 15.89  
Snow  
Snow 0.00 in 0.00 in 0.00 in ()
Month to date snowfall 0.0 0.0  
Since 1 July snowfall T 0.1  
Snow Depth 0.00 in    
Sea Level Pressure  
Sea Level Pressure 29.84 in    
Wind  
Wind Speed 10 mph (East)    
Max Wind Speed 20 mph    
Max Gust Speed 29 mph    
Visibility 6 miles    
Events Rain    
T = Trace of Precipitation, MM = Missing Value Source: NWS Daily Summary

Daily Weather History Graph

Daily Weather History Graph

Search for Another Location

Airport or City:

Trip Planner

Search our weather history database for the weather conditions in past years. The results will help you decide how hot, cold, wet, or windy it might be!

Date:

Astronomy

May. 04, 2013 Rise Set
Actual Time 6:41 AM EDT 8:12 PM EDT
Civil Twilight 6:15 AM EDT 8:38 PM EDT
Nautical Twilight 5:44 AM EDT 9:09 PM EDT
Astronomical Twilight 5:12 AM EDT 9:42 PM EDT
Moon 3:19 AM EDT (5/4) 3:26 PM EDT (5/4)
Length of Visible Light 14h 22m
Length of Day
13h 30m
Waning Crescent, 27% of the Moon is Illuminated
May 4
Waning Crescent
May 9
New
May 18
First Quarter
May 25
Full
May 31
Last Quarter

Hourly Weather History & Observations

Time (EDT) Temp. Dew Point Humidity Pressure Visibility Wind Dir Wind Speed Gust Speed Precip Events Conditions
12:53 AM 64.0 °F 59.0 °F 84% 29.90 in 10.0 mi ENE 9.2 mph - N/A   Overcast
1:53 AM 64.0 °F 59.0 °F 84% 29.88 in 9.0 mi East 11.5 mph 18.4 mph N/A   Overcast
2:21 AM 62.6 °F 57.2 °F 82% 29.87 in 9.0 mi ENE 8.1 mph 17.3 mph N/A   Overcast
2:31 AM 62.6 °F 57.2 °F 82% 29.87 in 9.0 mi ENE 6.9 mph - N/A   Overcast
2:53 AM 63.0 °F 57.9 °F 84% 29.86 in 8.0 mi ENE 8.1 mph - N/A   Overcast
3:53 AM 62.1 °F 59.0 °F 90% 29.86 in 4.0 mi ENE 5.8 mph - N/A   Overcast
4:00 AM 60.8 °F 59.0 °F 94% 29.86 in 5.0 mi NE 9.2 mph - N/A   Overcast
4:07 AM 60.8 °F 59.0 °F 94% 29.86 in 4.0 mi ENE 5.8 mph - 0.00 in Rain Light Rain
4:16 AM 60.8 °F 59.0 °F 94% 29.86 in 5.0 mi Variable 6.9 mph - 0.00 in Rain Light Rain
4:29 AM 60.8 °F 59.0 °F 94% 29.85 in 4.0 mi ENE 10.4 mph - 0.01 in Rain Light Rain
4:36 AM 60.8 °F 59.0 °F 94% 29.85 in 5.0 mi Variable 6.9 mph - 0.01 in Rain Light Rain
4:53 AM 61.0 °F 59.0 °F 93% 29.85 in 6.0 mi Variable 3.5 mph - 0.01 in   Overcast
5:06 AM 60.8 °F 57.2 °F 88% 29.85 in 7.0 mi Variable 5.8 mph - N/A   Overcast
5:53 AM 60.1 °F 57.9 °F 93% 29.86 in 7.0 mi Variable 5.8 mph - 0.02 in   Overcast
6:28 AM 60.8 °F 57.2 °F 88% 29.86 in 3.0 mi ENE 5.8 mph - N/A   Overcast
6:53 AM 60.1 °F 57.9 °F 93% 29.86 in 2.5 mi NE 4.6 mph - 0.00 in Rain Light Rain
7:00 AM 60.8 °F 59.0 °F 94% 29.86 in 3.0 mi Variable 3.5 mph - 0.00 in   Overcast
7:31 AM 60.8 °F 59.0 °F 94% 29.87 in 6.0 mi NE 6.9 mph - 0.00 in   Overcast
7:53 AM 60.1 °F 57.9 °F 93% 29.86 in 6.0 mi Variable 6.9 mph - 0.00 in   Overcast
8:43 AM 62.6 °F 60.8 °F 94% 29.88 in 4.0 mi ENE 6.9 mph - 0.00 in   Overcast
8:53 AM 62.1 °F 59.0 °F 90% 29.87 in 4.0 mi ENE 5.8 mph - 0.00 in Rain Light Rain
8:58 AM 62.6 °F 60.8 °F 94% 29.88 in 2.5 mi ENE 4.6 mph - 0.00 in Rain Light Rain
9:05 AM 62.6 °F 59.0 °F 88% 29.88 in 1.8 mi ENE 10.4 mph - 0.01 in Rain Light Rain
9:18 AM 60.8 °F 59.0 °F 94% 29.87 in 1.8 mi ENE 6.9 mph - 0.03 in Rain Light Rain
9:28 AM 60.8 °F 57.2 °F 88% 29.87 in 2.5 mi ENE 10.4 mph - 0.03 in Rain Light Rain
9:53 AM 62.1 °F 59.0 °F 90% 29.87 in 3.0 mi ENE 6.9 mph - 0.04 in Rain Light Rain
10:14 AM 62.6 °F 60.8 °F 94% 29.87 in 5.0 mi ENE 10.4 mph - 0.00 in   Overcast
10:45 AM 64.4 °F 60.8 °F 88% 29.86 in 9.0 mi East 10.4 mph 21.9 mph 0.00 in   Overcast
10:53 AM 64.0 °F 61.0 °F 90% 29.86 in 4.0 mi East 13.8 mph 21.9 mph 0.00 in Rain Light Rain
11:00 AM 64.4 °F 60.8 °F 88% 29.86 in 5.0 mi East 15.0 mph 24.2 mph 0.00 in Rain Light Rain
11:13 AM 64.4 °F 60.8 °F 88% 29.86 in 8.0 mi East 11.5 mph 21.9 mph 0.00 in   Overcast
11:27 AM 64.4 °F 60.8 °F 88% 29.86 in 8.0 mi East 8.1 mph 19.6 mph 0.00 in   Overcast
11:53 AM 64.9 °F 60.1 °F 84% 29.86 in 8.0 mi East 11.5 mph 18.4 mph 0.00 in   Overcast
12:53 PM 69.1 °F 59.0 °F 70% 29.84 in 10.0 mi East 13.8 mph 21.9 mph N/A   Overcast
1:02 PM 68.0 °F 57.2 °F 68% 29.84 in 10.0 mi East 12.7 mph 26.5 mph N/A   Overcast
1:53 PM 69.1 °F 57.0 °F 65% 29.83 in 10.0 mi East 13.8 mph 23.0 mph N/A   Overcast
2:53 PM 70.0 °F 57.9 °F 65% 29.81 in 10.0 mi East 13.8 mph 24.2 mph N/A   Overcast
3:14 PM 68.0 °F 57.2 °F 68% 29.81 in 10.0 mi East 10.4 mph 25.3 mph N/A   Overcast
3:38 PM 69.8 °F 57.2 °F 64% 29.81 in 10.0 mi ESE 11.5 mph 18.4 mph N/A   Overcast
3:53 PM 68.0 °F 59.0 °F 73% 29.80 in 10.0 mi East 12.7 mph 20.7 mph N/A   Overcast
4:13 PM 69.8 °F 59.0 °F 68% 29.81 in 10.0 mi East 10.4 mph 19.6 mph N/A   Overcast
4:53 PM 66.9 °F 57.9 °F 73% 29.80 in 9.0 mi East 15.0 mph 24.2 mph N/A   Overcast
5:14 PM 66.2 °F 59.0 °F 78% 29.80 in 10.0 mi East 17.3 mph 27.6 mph N/A   Overcast
5:53 PM 66.0 °F 60.1 °F 81% 29.80 in 10.0 mi East 12.7 mph 23.0 mph N/A   Overcast
6:53 PM 66.0 °F 57.9 °F 75% 29.79 in 10.0 mi ESE 15.0 mph 26.5 mph N/A   Overcast
7:53 PM 64.9 °F 57.9 °F 78% 29.79 in 10.0 mi East 12.7 mph 18.4 mph N/A   Overcast
8:53 PM 64.0 °F 61.0 °F 90% 29.78 in 3.0 mi East 11.5 mph 16.1 mph N/A   Overcast
9:29 PM 62.6 °F 60.8 °F 94% 29.79 in 3.0 mi East 12.7 mph 20.7 mph N/A   Overcast
9:53 PM 63.0 °F 61.0 °F 93% 29.79 in 3.0 mi East 11.5 mph 21.9 mph 0.00 in   Overcast
10:28 PM 62.6 °F 60.8 °F 94% 29.79 in 10.0 mi East 11.5 mph 23.0 mph N/A   Overcast
10:53 PM 64.0 °F 61.0 °F 90% 29.78 in 4.0 mi East 10.4 mph 18.4 mph 0.00 in Rain Light Rain
11:14 PM 64.4 °F 60.8 °F 88% 29.78 in 4.0 mi East 10.4 mph 20.7 mph 0.01 in Rain Light Rain
11:53 PM 64.0 °F 62.1 °F 93% 29.76 in 3.0 mi East 11.5 mph 20.7 mph 0.01 in   Overcast